GW5027 Weather Reports


time (UTC)temp
C
wind
direction
speed
KPH
gust
KPH
rain 1hr
cm
rain 24hr
cm
rain mn
cm
humidity
%
barometer
mb
20260502221503 17 83 6.4 9.7 0.00 0.23 0.00 78 1018.2
20260502221002 16 75 4.8 9.7 0.00 0.23 0.00 79 1013.7
20260502220502 16 69 4.8 9.7 0.00 0.23 0.00 79 1013.7
20260502220007 16 115 4.8 9.7 0.00 0.23 0.00 80 1018.3
20260502220005 16 115 3.2 9.7 0.00 0.23 0.00 80 1013.8
20260502215503 16 126 4.8 9.7 0.00 0.23 0.23 81 1013.8
20260502215002 16 112 3.2 8.0 0.00 0.23 0.23 82 1013.8
20260502214502 16 118 3.2 6.4 0.00 0.23 0.23 82 1013.8
20260502214003 16 91 3.2 6.4 0.00 0.23 0.23 83 1018.2
20260502214001 16 91 3.2 6.4 0.00 0.23 0.23 83 1013.7
20260502213502 16 110 3.2 6.4 0.00 0.23 0.23 83 1018.3
20260502213001 16 101 3.2 6.4 0.00 0.23 0.23 84 1013.7
20260502212502 16 99 3.2 4.8 0.00 0.23 0.23 85 1018.2
20260502212003 16 77 3.2 6.4 0.00 0.23 0.23 85 1018.3
20260502211506 16 101 3.2 8.0 0.00 0.23 0.23 85 1013.9
20260502211502 16 101 4.8 8.0 0.00 0.23 0.23 85 1018.4
20260502211002 16 59 4.8 8.0 0.00 0.23 0.23 85 1013.9
20260502210502 16 70 3.2 6.4 0.00 0.23 0.23 85 1018.5
20260502210005 16 110 3.2 6.4 0.00 0.23 0.23 85 1018.4
20260502210003 16 110 3.2 6.4 0.00 0.23 0.23 85 1013.9
20260502205503 16 170 4.8 9.7 0.00 0.23 0.23 85 1018.4
20260502205004 16 103 3.2 8.0 0.00 0.23 0.23 85 1014.0
20260502204504 16 116 4.8 12.9 0.00 0.23 0.23 85 1013.9
20260502204004 16 94 4.8 12.9 0.00 0.23 0.23 86 1018.3
20260502204001 16 94 3.2 12.9 0.00 0.23 0.23 86 1013.7
20260502203502 16 129 3.2 8.0 0.00 0.23 0.23 86 1013.7
20260502203001 16 127 1.6 8.0 0.03 0.23 0.23 87 1013.7
20260502202501 16 101 3.2 8.0 0.03 0.23 0.23 87 1018.2
20260502202004 16 119 3.2 6.4 0.03 0.23 0.23 88 1018.2
20260502201502 16 115 3.2 6.4 0.03 0.23 0.23 88 1018.2
20260502201004 16 122 4.8 9.7 0.03 0.23 0.23 88 1018.1
20260502201002 16 122 3.2 9.7 0.03 0.23 0.23 88 1013.6
20260502200502 16 118 4.8 11.3 0.03 0.23 0.23 87 1013.5
20260502200006 16 77 6.4 12.9 0.03 0.23 0.23 87 1018.0
20260502200003 16 77 4.8 12.9 0.03 0.23 0.23 87 1013.5
20260502195501 16 96 6.4 12.9 0.03 0.23 0.23 86 1017.9
20260502195003 16 70 6.4 12.9 0.03 0.23 0.23 86 1018.0
20260502194501 16 81 6.4 11.3 0.03 0.23 0.23 86 1018.2
20260502194000 16 153 4.8 9.7 0.03 0.23 0.23 86 1013.7
20260502193600 16 114 4.8 9.7 0.03 0.23 0.23 86 1013.8
20260502193504 16 110 3.2 9.7 0.00 0.20 0.20 86 1013.9
20260502193002 16 73 4.8 8.0 0.00 0.20 0.20 85 1018.4
20260502192601 16 122 4.8 8.0 0.00 0.20 0.20 86 1014.0
20260502192501 16 69 3.2 8.0 0.00 0.20 0.20 86 1018.5
20260502192003 16 104 1.6 6.4 0.03 0.20 0.20 87 1014.1
20260502192001 16 104 3.2 6.4 0.03 0.20 0.20 87 1018.6
20260502191502 16 85 4.8 8.0 0.03 0.20 0.20 87 1018.7
20260502191002 16 74 3.2 8.0 0.03 0.20 0.20 88 1018.6
20260502190502 16 91 3.2 6.4 0.03 0.20 0.20 89 1018.6
20260502190006 16 77 1.6 6.4 0.03 0.20 0.20 90 1018.6
20260502190004 16 77 1.6 6.4 0.03 0.20 0.20 90 1014.1
20260502185502 16 54 0.0 3.2 0.03 0.20 0.20 90 1018.7
20260502185100 16 65 0.0 3.2 0.03 0.20 0.20 91 1014.2
20260502185002 16 65 1.6 3.2 0.03 0.20 0.20 91 1018.7
20260502185000 16 65 0.0 3.2 0.03 0.20 0.20 91 1014.2
20260502184503 16 310 1.6 3.2 0.03 0.20 0.20 91 1018.8
20260502184500 16 310 0.0 3.2 0.03 0.20 0.20 91 1014.2
20260502184003 16 304 0.0 3.2 0.03 0.20 0.20 90 1014.2
20260502183601 16 346 0.0 3.2 0.03 0.20 0.20 90 1014.1
20260502183501 16 345 0.0 3.2 0.03 0.20 0.20 90 1018.5
20260502183001 16 337 0.0 1.6 0.03 0.20 0.20 90 1014.1
20260502182503 16 327 0.0 1.6 0.03 0.20 0.20 90 1014.0
20260502182102 16 359 0.0 1.6 0.00 0.18 0.18 90 1014.0
20260502182002 16 346 0.0 1.6 0.00 0.18 0.18 90 1018.5
20260502181610 16 10 0.0 1.6 0.00 0.18 0.18 90 1013.9
20260502181501 16 360 0.0 1.6 0.00 0.18 0.18 90 1018.4
20260502181100 16 302 0.0 1.6 0.00 0.18 0.18 90 1014.0
20260502180600 16 302 0.0 1.6 0.00 0.18 0.18 90 1013.9
20260502180501 16 302 0.0 1.6 0.00 0.18 0.18 90 1014.0
20260502170503 17 269 1.6 4.8 0.08 0.18 0.18 85 1013.9
20260502170501 17 269 1.6 4.8 0.08 0.18 0.18 85 1018.4
20260502164100 17 48 1.6 8.0 0.08 0.15 0.15 86 1014.3
20260502164002 17 79 3.2 8.0 0.08 0.15 0.15 86 1018.8
20260502163600 17 99 3.2 8.0 0.08 0.15 0.15 86 1014.6
20260502163501 17 86 3.2 8.0 0.08 0.15 0.15 85 1014.6
20260502163101 17 137 1.6 6.4 0.08 0.15 0.15 86 1014.4
20260502163002 17 118 3.2 6.4 0.05 0.15 0.15 86 1018.9
20260502162601 17 91 3.2 6.4 0.05 0.15 0.15 85 1014.5
20260502162503 17 87 3.2 6.4 0.05 0.15 0.15 84 1019.0
20260502162101 17 103 1.6 6.4 0.05 0.15 0.15 85 1014.5
20260502162001 17 102 1.6 6.4 0.05 0.15 0.15 85 1019.1
20260502161601 17 97 1.6 3.2 0.05 0.13 0.13 83 1014.5
20260502161100 17 66 0.0 4.8 0.05 0.13 0.13 84 1014.6
20260502161004 17 62 1.6 4.8 0.05 0.13 0.13 83 1019.1
20260502160600 17 61 1.6 14.5 0.03 0.10 0.10 82 1014.8
20260502160501 17 345 4.8 20.9 0.03 0.10 0.10 82 1019.3
20260502152102 18 28 0.0 3.2 0.00 0.08 0.08 74 1014.7
20260502152002 18 71 0.0 3.2 0.00 0.08 0.08 74 1019.3
20260502151622 18 72 0.0 3.2 0.00 0.08 0.08 74 1014.8
20260502151505 18 72 0.0 3.2 0.00 0.08 0.08 75 1019.3
20260502151100 18 63 0.0 1.6 0.00 0.08 0.08 74 1014.8
20260502151001 18 64 0.0 3.2 0.00 0.08 0.08 74 1019.4
20260502150600 18 330 0.0 3.2 0.00 0.08 0.08 73 1014.9
20260502150501 18 330 1.6 3.2 0.00 0.08 0.08 73 1019.4
20260502130601 17 134 11.3 19.3 0.08 0.08 0.08 82 1016.1
20260502130501 17 93 11.3 19.3 0.08 0.08 0.08 82 1020.6
20260502123601 17 77 4.8 17.7 0.08 0.08 0.08 86 1016.2
20260502123501 17 82 9.7 19.3 0.08 0.08 0.08 86 1020.8
20260502123106 17 55 9.7 19.3 0.08 0.08 0.08 86 1016.4
20260502123003 17 70 11.3 19.3 0.08 0.08 0.08 85 1020.9
20260502122559 17 63 9.7 17.7 0.05 0.05 0.05 85 1016.3
20260502122501 17 84 9.7 17.7 0.05 0.05 0.05 85 1021.0
20260502122102 17 84 9.7 14.5 0.00 0.00 0.00 84 1016.7
20260502122001 17 65 6.4 14.5 0.00 0.00 0.00 84 1021.3
20260502121600 17 91 6.4 11.3 0.00 0.00 0.00 83 1016.9
20260502121501 17 86 3.2 11.3 0.00 0.00 0.00 83 1021.5
20260502121100 17 63 4.8 9.7 0.00 0.00 0.00 83 1017.0
20260502121003 17 21 3.2 9.7 0.00 0.00 0.00 83 1021.6
20260502120601 17 282 0.0 6.4 0.00 0.00 0.00 83 1017.1
20260502120501 17 281 1.6 6.4 0.00 0.00 0.00 83 1021.7
20260502115600 17 357 0.0 9.7 0.00 0.00 0.00 85 1017.1
20260502115501 17 338 3.2 9.7 0.00 0.00 0.00 85 1021.7
20260502115100 17 340 3.2 12.9 0.00 0.00 0.00 85 1017.0
20260502114603 17 295 3.2 12.9 0.00 0.00 0.00 86 1017.1
20260502114101 17 338 3.2 9.7 0.00 0.00 0.00 86 1017.3
20260502114002 17 359 4.8 9.7 0.00 0.00 0.00 86 1021.9
20260502113603 17 315 3.2 9.7 0.00 0.00 0.00 86 1017.3
20260502113501 17 323 6.4 9.7 0.00 0.00 0.00 86 1021.8
20260502113101 17 303 4.8 11.3 0.00 0.00 0.00 85 1017.3
20260502113003 17 318 6.4 11.3 0.00 0.00 0.00 85 1021.9
20260502112600 17 25 6.4 11.3 0.00 0.00 0.00 85 1017.4
20260502112501 17 348 8.0 14.5 0.00 0.00 0.00 85 1022.0
20260502112100 17 13 4.8 17.7 0.00 0.00 0.00 85 1017.4
20260502112001 17 321 8.0 17.7 0.00 0.00 0.00 85 1021.9
20260502111601 17 329 6.4 17.7 0.00 0.00 0.00 85 1017.4
20260502111501 17 330 6.4 17.7 0.00 0.00 0.00 85 1021.9
20260502111100 17 325 6.4 16.1 0.00 0.00 0.00 84 1017.4
20260502110600 17 350 6.4 16.1 0.00 0.00 0.00 84 1017.4
20260502110501 17 281 8.0 16.1 0.00 0.00 0.00 84 1021.9
20260502110104 17 351 8.0 16.1 0.00 0.00 0.00 83 1017.3
20260502110003 17 315 6.4 12.9 0.00 0.00 0.00 83 1017.3
20260502105601 17 296 6.4 17.7 0.00 0.00 0.00 82 1017.3
20260502105501 17 303 8.0 17.7 0.00 0.00 0.00 81 1021.9
20260502105100 17 278 8.0 24.1 0.00 0.00 0.00 81 1017.3
20260502105002 18 315 9.7 24.1 0.00 0.00 0.00 80 1021.8
20260502104600 18 281 8.0 24.1 0.00 0.00 0.00 78 1017.2
20260502104502 18 273 11.3 24.1 0.00 0.00 0.00 74 1021.8
20260502104100 19 250 11.3 24.1 0.00 0.00 0.00 72 1017.2
20260502104001 20 289 11.3 24.1 0.00 0.00 0.00 72 1021.7
20260502103600 21 271 11.3 20.9 0.00 0.00 0.00 59 1017.1
20260502103501 21 236 9.7 19.3 0.00 0.00 0.00 59 1021.6
20260502103108 21 273 9.7 22.5 0.00 0.00 0.00 59 1017.1
20260502103003 21 196 11.3 22.5 0.00 0.00 0.00 59 1021.6
20260502102601 21 226 9.7 22.5 0.00 0.00 0.00 60 1017.0
20260502102501 21 158 11.3 22.5 0.00 0.00 0.00 60 1021.6
20260502102101 21 236 9.7 22.5 0.00 0.00 0.00 59 1016.8
20260502102001 21 247 9.7 19.3 0.00 0.00 0.00 59 1021.4
20260502101637 21 238 6.4 14.5 0.00 0.00 0.00 59 1016.7
20260502101501 21 272 6.4 14.5 0.00 0.00 0.00 59 1021.1
20260502101103 21 149 6.4 16.1 0.00 0.00 0.00 59 1016.3
20260502101003 21 121 8.0 19.3 0.00 0.00 0.00 59 1020.9
20260502100600 21 89 8.0 19.3 0.00 0.00 0.00 59 1016.1
20260502100501 21 157 9.7 19.3 0.00 0.00 0.00 59 1020.6
20260502100121 21 126 8.0 20.9 0.00 0.00 0.00 59 1016.0
20260502091501 21 149 9.7 19.3 0.00 0.00 0.00 60 1020.6
20260502091100 21 127 8.0 14.5 0.00 0.00 0.00 60 1016.1
20260502090601 21 131 8.0 14.5 0.00 0.00 0.00 60 1016.2
20260502090501 21 52 8.0 14.5 0.00 0.00 0.00 61 1020.7
20260502080108 20 139 9.7 19.3 0.00 0.00 0.00 62 1015.9
20260502071503 20 120 16.1 30.6 0.00 0.00 0.00 61 1020.6
20260502071100 20 114 16.1 30.6 0.00 0.00 0.00 61 1016.0
20260502071001 20 130 17.7 30.6 0.00 0.00 0.00 61 1020.5
20260502070600 20 125 17.7 37.0 0.00 0.00 0.00 61 1016.0
20260502070501 20 116 17.7 37.0 0.00 0.00 0.00 61 1020.5
20260502070003 20 90 19.3 37.0 0.00 0.00 0.00 61 1016.1
20260502065601 20 108 17.7 37.0 0.00 0.00 0.00 61 1016.1
20260502065105 20 150 14.5 37.0 0.00 0.00 0.00 61 1016.0
20260502064603 20 44 19.3 35.4 0.00 0.00 0.00 61 1016.0
20260502064501 20 165 20.9 33.8 0.00 0.00 0.00 61 1020.3
20260502064100 20 108 22.5 33.8 0.00 0.00 0.00 61 1015.8
20260502063600 20 102 16.1 37.0 0.00 0.00 0.00 61 1015.8
20260502063501 20 118 19.3 37.0 0.00 0.00 0.00 61 1020.4
20260502063101 20 106 19.3 37.0 0.00 0.00 0.00 61 1015.8
20260502063002 20 117 19.3 37.0 0.00 0.00 0.00 61 1020.3
20260502062600 20 110 17.7 37.0 0.00 0.00 0.00 61 1015.6
20260502062502 20 92 17.7 30.6 0.00 0.00 0.00 61 1015.6
20260502062101 20 101 14.5 33.8 0.00 0.00 0.00 61 1015.8
20260502062003 20 115 16.1 33.8 0.00 0.00 0.00 61 1020.3
20260502061601 20 126 17.7 33.8 0.00 0.00 0.00 60 1015.8
20260502061501 20 116 14.5 30.6 0.00 0.00 0.00 60 1020.4
20260502061101 20 116 11.3 30.6 0.00 0.00 0.00 60 1015.9
20260502061001 20 135 16.1 30.6 0.00 0.00 0.00 60 1020.3
20260502060600 20 131 17.7 32.2 0.00 0.00 0.00 60 1015.8
20260502060501 20 111 17.7 32.2 0.00 0.00 0.00 60 1020.3
20260502060100 20 115 17.7 32.2 0.00 0.00 0.00 60 1015.7
20260502060004 20 85 17.7 32.2 0.00 0.00 0.00 60 1015.7
20260502055600 20 104 16.1 40.2 0.00 0.00 0.00 60 1015.8
20260502055501 20 153 17.7 40.2 0.00 0.00 0.00 60 1020.3
20260502055100 20 127 16.1 40.2 0.00 0.00 0.00 60 1015.8
20260502055001 20 105 17.7 40.2 0.00 0.00 0.00 60 1020.4
20260502054614 20 56 17.7 33.8 0.00 0.00 0.00 59 1015.8
20260502054501 20 119 16.1 33.8 0.00 0.00 0.00 59 1020.4
20260502054100 20 127 14.5 33.8 0.00 0.00 0.00 59 1015.9
20260502054001 20 82 16.1 33.8 0.00 0.00 0.00 59 1020.5
20260502053601 20 122 16.1 27.4 0.00 0.00 0.00 59 1016.0
20260502053502 20 84 14.5 27.4 0.00 0.00 0.00 59 1020.6
20260502053114 20 63 11.3 30.6 0.00 0.00 0.00 59 1015.9
20260502053001 20 146 12.9 30.6 0.00 0.00 0.00 59 1020.4
20260502052600 20 130 12.9 30.6 0.00 0.00 0.00 59 1015.8
20260502052501 20 134 14.5 27.4 0.00 0.00 0.00 59 1020.5
20260502052100 20 118 12.9 29.0 0.00 0.00 0.00 58 1015.9
20260502052003 20 90 12.9 29.0 0.00 0.00 0.00 58 1020.4
20260502051601 20 113 11.3 29.0 0.00 0.00 0.00 58 1015.8
20260502051501 20 105 12.9 25.7 0.00 0.00 0.00 58 1020.3
20260502051100 20 127 12.9 25.7 0.00 0.00 0.00 58 1015.7
20260502051001 20 165 12.9 25.7 0.00 0.00 0.00 58 1020.2
20260502050600 20 102 11.3 25.7 0.00 0.00 0.00 58 1015.6
20260502050501 20 193 11.3 25.7 0.00 0.00 0.00 58 1020.2
20260502050100 20 100 11.3 20.9 0.00 0.00 0.00 58 1015.6
20260502050009 20 89 11.3 27.4 0.00 0.00 0.00 58 1020.2
20260502050003 20 120 11.3 27.4 0.00 0.00 0.00 58 1015.6
20260502045601 20 110 8.0 27.4 0.00 0.00 0.00 58 1015.6
20260502045501 20 114 12.9 27.4 0.00 0.00 0.00 58 1020.2
20260502045101 20 121 11.3 30.6 0.00 0.00 0.00 58 1015.6
20260502045004 20 171 12.9 30.6 0.00 0.00 0.00 58 1020.1
20260502044602 20 134 14.5 30.6 0.00 0.00 0.00 58 1015.4
20260502044103 20 123 9.7 22.5 0.00 0.00 0.00 58 1015.6
20260502044001 20 77 8.0 22.5 0.00 0.00 0.00 58 1020.2
20260502043601 20 134 4.8 22.5 0.00 0.00 0.00 58 1015.7
20260502043108 20 143 9.7 32.2 0.00 0.00 0.00 57 1015.7
20260502043006 20 160 14.5 32.2 0.00 0.00 0.00 57 1020.2
20260502042600 20 115 14.5 32.2 0.00 0.00 0.00 57 1015.6
20260502042501 20 110 14.5 32.2 0.00 0.00 0.00 57 1020.1
20260502042101 20 134 9.7 37.0 0.00 0.00 0.00 57 1015.5
20260502042003 20 106 16.1 37.0 0.00 0.00 0.00 57 1020.0
20260502041601 20 118 19.3 35.4 0.00 0.00 0.00 57 1015.5
20260502041501 20 94 16.1 35.4 0.00 0.00 0.00 57 1020.0
20260502041100 20 108 12.9 29.0 0.00 0.00 0.00 57 1015.5
20260502041001 20 97 12.9 29.0 0.00 0.00 0.00 57 1020.0
20260502040600 20 139 12.9 29.0 0.00 0.00 0.00 57 1015.4
20260502040501 20 126 12.9 22.5 0.00 0.00 0.00 57 1020.1
20260502040100 20 105 11.3 22.5 0.00 0.00 0.00 57 1015.4
20260502040005 20 124 12.9 22.5 0.00 0.00 0.00 57 1020.0
20260502040003 20 124 12.9 22.5 0.00 0.00 0.00 57 1015.4
20260502035600 20 76 9.7 22.5 0.00 0.00 0.00 56 1015.3
20260502035103 21 122 12.9 22.5 0.00 0.00 0.00 56 1015.5
20260502035002 21 122 12.9 20.9 0.00 0.00 0.00 56 1019.9
20260502034600 21 99 11.3 25.7 0.00 0.00 0.00 56 1015.4
20260502034502 21 155 11.3 25.7 0.00 0.00 0.00 56 1020.0
20260502034101 21 89 9.7 25.7 0.00 0.00 0.00 56 1015.4
20260502034001 21 132 11.3 25.7 0.00 0.00 0.00 56 1020.0
20260502033600 21 96 11.3 20.9 0.00 0.00 0.00 56 1015.4
20260502033501 21 132 9.7 20.9 0.00 0.00 0.00 56 1020.0
20260502033106 21 84 9.7 24.1 0.00 0.00 0.00 56 1015.5
20260502033001 21 79 9.7 24.1 0.00 0.00 0.00 56 1020.0
20260502032600 21 142 9.7 24.1 0.00 0.00 0.00 55 1015.5
20260502032503 21 122 11.3 24.1 0.00 0.00 0.00 55 1020.1
20260502032100 21 103 12.9 22.5 0.00 0.00 0.00 55 1015.5
20260502032001 21 74 11.3 25.7 0.00 0.00 0.00 55 1020.0
20260502031604 21 99 9.7 25.7 0.00 0.00 0.00 55 1015.5
20260502031503 21 93 9.7 25.7 0.00 0.00 0.00 55 1020.1
20260502031100 21 84 9.7 24.1 0.00 0.00 0.00 55 1015.5
20260502031001 21 201 9.7 24.1 0.00 0.00 0.00 55 1020.0
20260502030601 21 95 8.0 24.1 0.00 0.00 0.00 55 1015.5
20260502030002 21 99 11.3 25.7 0.00 0.00 0.00 54 1015.6
20260502025600 21 113 12.9 25.7 0.00 0.00 0.00 54 1015.6
20260502025100 21 133 9.7 27.4 0.00 0.00 0.00 54 1015.7
20260502025001 21 181 12.9 27.4 0.00 0.00 0.00 54 1020.2
20260502024600 21 77 12.9 25.7 0.00 0.00 0.00 54 1015.6
20260502024502 21 172 11.3 24.1 0.00 0.00 0.00 54 1015.7
20260502024100 21 30 11.3 25.7 0.00 0.00 0.00 55 1015.6
20260502024001 21 137 12.9 25.7 0.00 0.00 0.00 55 1020.2
20260502023600 21 122 12.9 27.4 0.00 0.00 0.00 54 1015.6
20260502023503 21 152 12.9 27.4 0.00 0.00 0.00 54 1020.2
20260502023112 21 98 11.3 27.4 0.00 0.00 0.00 54 1015.6
20260502022601 21 91 11.3 19.3 0.00 0.00 0.00 54 1015.7
20260502022501 21 127 12.9 20.9 0.00 0.00 0.00 54 1020.2
20260502022103 21 136 9.7 27.4 0.00 0.00 0.00 54 1015.7
20260502022002 21 104 11.3 27.4 0.00 0.00 0.00 54 1020.3
20260502021600 21 63 9.7 27.4 0.00 0.00 0.00 54 1015.7
20260502021503 21 146 11.3 27.4 0.00 0.00 0.00 54 1020.3
20260502021100 21 148 11.3 27.4 0.00 0.00 0.00 54 1015.7
20260502020600 21 138 9.7 27.4 0.00 0.00 0.00 54 1015.7
20260502020501 21 108 11.3 27.4 0.00 0.00 0.00 54 1020.2
20260502020003 21 136 11.3 27.4 0.00 0.00 0.00 54 1015.6
20260502015600 21 81 11.3 29.0 0.00 0.00 0.00 54 1015.7
20260502015105 21 118 12.9 30.6 0.00 0.00 0.00 54 1015.7
20260502014605 21 147 14.5 30.6 0.00 0.00 0.00 55 1015.6
20260502014100 21 124 11.3 25.7 0.00 0.00 0.00 55 1015.7
20260502013602 21 108 12.9 29.0 0.00 0.00 0.00 55 1015.6
20260502013501 21 82 14.5 30.6 0.00 0.00 0.00 55 1020.2
20260502013100 21 100 14.5 30.6 0.00 0.00 0.00 55 1015.6
20260502013004 21 98 14.5 30.6 0.00 0.00 0.00 55 1020.2
20260502013001 21 98 12.9 30.6 0.00 0.00 0.00 55 1015.7
20260502012600 21 105 12.9 32.2 0.00 0.00 0.00 55 1015.7
20260502012501 21 138 12.9 32.2 0.00 0.00 0.00 55 1020.2
20260502012100 21 145 14.5 30.6 0.00 0.00 0.00 55 1015.7
20260502012001 21 148 14.5 30.6 0.00 0.00 0.00 55 1020.3
20260502011605 21 115 11.3 30.6 0.00 0.00 0.00 55 1015.7
20260502011101 21 90 9.7 33.8 0.00 0.00 0.00 55 1016.0
20260502011002 21 110 14.5 33.8 0.00 0.00 0.00 55 1020.5
20260502010603 21 93 17.7 38.6 0.00 0.00 0.00 55 1016.0
20260502010100 21 121 17.7 38.6 0.00 0.00 0.00 55 1015.9
20260502010005 21 105 17.7 38.6 0.00 0.00 0.00 55 1020.5
20260502005504 21 134 16.1 37.0 0.00 0.00 0.00 54 1020.6
20260502005502 21 134 16.1 37.0 0.00 0.00 0.00 54 1016.1
20260502005002 21 146 17.7 37.0 0.00 0.00 0.00 55 1016.1
20260502004502 21 32 14.5 27.4 0.00 0.00 0.00 55 1016.1
20260502004003 21 98 14.5 27.4 0.00 0.00 0.00 55 1016.2
20260502003502 21 131 11.3 25.7 0.00 0.00 0.00 55 1016.2
20260502003004 21 146 12.9 25.7 0.00 0.00 0.00 55 1020.8
20260502003001 21 146 11.3 25.7 0.00 0.00 0.00 55 1016.3
20260502002503 21 123 12.9 29.0 0.00 0.00 0.00 55 1020.9
20260502002501 21 123 12.9 29.0 0.00 0.00 0.00 55 1016.3
20260502002003 21 72 12.9 29.0 0.00 0.00 0.00 55 1021.0
20260502001502 21 104 12.9 27.4 0.00 0.00 0.00 54 1016.4
20260502001015 21 189 12.9 27.4 0.00 0.00 0.00 54 1021.1
20260502001001 21 121 12.9 27.4 0.00 0.00 0.00 54 1016.6
20260502000600 21 78 11.3 27.4 0.00 0.00 0.00 54 1016.6
20260502000501 21 165 12.9 27.4 0.00 0.00 0.00 54 1021.0
20260502000105 21 132 14.5 27.4 0.00 0.00 0.00 54 1016.6
20260502000005 21 117 14.5 27.4 0.00 0.00 0.00 54 1021.1
20260502000002 21 117 12.9 27.4 0.00 0.00 0.00 54 1016.6
20260501235602 22 151 11.3 22.5 0.00 0.00 0.00 54 1016.7
20260501235502 22 129 12.9 25.7 0.00 0.00 0.00 54 1021.2
20260501235101 21 100 11.3 25.7 0.00 0.00 0.00 54 1016.8
20260501235001 22 117 12.9 25.7 0.00 0.00 0.00 54 1021.3
20260501234601 22 125 11.3 25.7 0.00 0.00 0.00 54 1016.8
20260501234100 22 101 12.9 24.1 0.00 0.00 0.00 54 1016.8
20260501234004 22 113 12.9 24.1 0.00 0.00 0.00 54 1021.4
20260501233601 22 70 12.9 27.4 0.00 0.00 0.00 54 1016.7
20260501233501 22 155 12.9 27.4 0.00 0.00 0.00 54 1021.3
20260501233101 21 110 14.5 27.4 0.00 0.00 0.00 54 1016.9
20260501232600 22 139 9.7 25.7 0.00 0.00 0.00 54 1016.8
20260501232504 22 106 12.9 25.7 0.00 0.00 0.00 54 1021.4
20260501232103 22 107 12.9 33.8 0.00 0.00 0.00 54 1016.9
20260501232002 22 120 14.5 33.8 0.00 0.00 0.00 54 1021.5
20260501231604 22 97 17.7 33.8 0.00 0.00 0.00 54 1016.8
20260501231510 22 63 14.5 33.8 0.00 0.00 0.00 54 1021.4
20260501231100 22 99 11.3 24.1 0.00 0.00 0.00 54 1016.9
20260501231002 22 91 11.3 22.5 0.00 0.00 0.00 54 1021.5
20260501230600 22 127 8.0 22.5 0.00 0.00 0.00 55 1016.9
20260501230501 22 103 9.7 22.5 0.00 0.00 0.00 55 1021.4
20260501230004 22 116 9.7 24.1 0.00 0.00 0.00 55 1016.9
20260501225503 22 90 9.7 24.1 0.00 0.00 0.00 55 1021.4
20260501225003 22 122 8.0 17.7 0.00 0.00 0.00 56 1021.4
20260501224602 22 89 6.4 24.1 0.00 0.00 0.00 56 1016.9
20260501224502 22 101 6.4 24.1 0.00 0.00 0.00 56 1016.9
20260501224003 22 112 11.3 24.1 0.00 0.00 0.00 56 1021.5
20260501223504 22 99 9.7 16.1 0.00 0.00 0.00 56 1021.6
20260501223005 22 129 8.0 25.7 0.00 0.00 0.00 56 1021.6
20260501223002 22 129 526.3 25.7 0.00 0.00 0.00 56 1017.0
20260501222505 -17 526.3 410.4 0.00 0.00 0.00 1017.1
20260501222502 -17 0.0 0.0 0.00 0.00 0.00 1021.6
20260501222102 -17 526.3 410.4 0.00 0.00 0.00 1017.1
20260501222001 -17 0.0 0.0 0.00 0.00 0.00 1021.7